Regional Weather Roundup
Issued by NWS Huntsville, AL

Home | Current Version | Previous Version | Text Only | Print | Product List | Glossary On
Versions: 1 2 3 4 5 6 7 8 9 10 11 12 13 14 15 16 17 18 19 20 21 22 23 24 25 26 27 28
000
ASUS44 KHUN 030710
RWRHUN

WEATHER ROUNDUP FOR THE TENNESSEE VALLEY
NATIONAL WEATHER SERVICE HUNTSVILLE AL
100 AM CST SAT DEC 03 2016

ALZ001>004-030800-
NORTHWEST ALABAMA

CITY           SKY/WX    TMP DP  RH WIND       PRES   REMARKS
COURTLAND HCN    N/A     36 N/A N/A CALM        N/A
RUSSELLVILLE     N/A     32 N/A N/A MISG        N/A
SHOALS AIRPORT PTCLDY    39  34  82 CALM      30.30S
SHOALS TVA RES   N/A     37 N/A N/A MISG        N/A
$$

ALZ005>007-016-030800-
NORTH CENTRAL ALABAMA

CITY           SKY/WX    TMP DP  RH WIND       PRES   REMARKS
CULLMAN AG STN   N/A     36 N/A N/A CALM        N/A
DECATUR AP     PTCLDY    37  35  92 CALM      30.30R
HUNTSVILLE AP  CLEAR     39  37  92 CALM      30.28S
MERIDIANVILLE  CLOUDY    36  34  93 CALM      30.30R
REDSTONE ARSN  CLEAR     42  32  69 NE3       30.28R
VINEMONT AP    FAIR      35  32  90 CALM      30.28F
$$

ALZ008>010-030800-
NORTHEAST ALABAMA

CITY           SKY/WX    TMP DP  RH WIND       PRES   REMARKS
FORT PAYNE     CLOUDY    34  32  93 CALM      30.28R
SCOTTSBORO AP  CLOUDY    36  36 100 CALM      30.30R
SCOTTSBORO HCN   N/A     34 N/A N/A MISG        N/A
VALLEY HEAD      N/A     34 N/A N/A MISG        N/A
$$

TNZ076-096-097-030800-
SOUTHEASTERN MIDDLE TENNESSEE

CITY           SKY/WX    TMP DP  RH WIND       PRES   REMARKS
TULLAHOMA      CLEAR     43  28  56 NE6       30.29S
WINCHESTER     CLEAR     36  34  93 CALM      30.29R
$$

...SURROUNDING SITES...

CITY           SKY/WX    TMP DP  RH WIND       PRES   REMARKS
ATLANTA        CLOUDY    45  33  63 NW9       30.24F
ANNISTON       CLOUDY    38  36  92 CALM      30.28
BIRMINGHAM     PTCLDY    43  36  76 CALM      30.29
CHATTANOOGA    CLOUDY    39  35  86 CALM      30.28
CORINTH        FAIR      36  34  93 CALM      30.28S
DALTON         PTCLDY    34  34 100 CALM      30.27R
GADSDEN        PTCLDY    36  33  89 CALM      30.29S
GOLDEN TRNGL   CLOUDY    43  36  75 N6        30.21F
HALEYVILLE     FAIR      35  34  96 CALM      30.29S
JACKSON TN     PTCLDY    43  32  65 E7        30.30F
MEMPHIS        CLOUDY    50  33  52 E7        30.30R
NASHVILLE      MOCLDY    40  31  70 N7        30.33F
ROME           PTCLDY    35  32  88 SW3       30.27
SAVANNAH       PTCLDY    37  36  93 CALM      30.29S
TUPELO         CLEAR     38  34  85 N7        30.27F WCI  33
TUSCALOOSA     MOCLDY    44  40  85 CALM      30.28
$$

...GULF COAST WEATHER...

CITY           SKY/WX    TMP DP  RH WIND       PRES   REMARKS
GULFPORT       CLOUDY    58  38  47 E9        30.18
PASCAGOULA     CLOUDY    57  34  41 E9        30.18F
MOBILE         MOCLDY    53  42  66 NE10      30.20F
GULF SHORES    CLOUDY    55  36  50 NE6       30.21F
PENSACOLA      CLOUDY    59  34  39 NE9       30.22R
DESTIN         MOCLDY    60  38  43 NE3       30.23R
PANAMA CITY    CLOUDY    54  37  53 NE6       30.20F
APPALACHICOLA  PTCLDY    53  35  50 NE7       30.20S
$$





USA.gov is the U.S. government's official web portal to all federal, state and local government web resources and services.